Location: Altenst�hlen
(53.5567°N, 8.9425°E)
Time: 00:59:50
(UTC+00:00)

Cosmos 2227 Rocket - Pass Details

Date: 23 October 2019
Orbit: 838 x 846 km, 71.0° (Epoch: 16 November)

Event Time Altitude Azimuth Distance (km) Brightness Sun altitude
Rises 20:51:24 0° 328° (NNW) 3,421 6.2 -39.9°
Reaches altitude 10° 20:53:54 10° 332° (NNW) 2,482 5.3 -40.2°
Enters shadow 20:55:47 22° 337° (NNW) 1,802 4.3 -40.4°
